Погода в Пинеровке

Россия / Саратовская область     51°33′31″N   43°03′52″E
темп.,
°C
ветер,
м/с
пор.,
м/с
влажн.,
%
обл.,
%
осадки,
мм/ч
давл.,
гПа
погр.,
м
27 февраля, сб
сб2701:00+2з61399100 0.1 1007370
04:00+1з61295100 0.1 1007340
07:00+1з61394100 0.0 1006575
10:00+1з61292100 0.0 1005584
13:00+1з71297100 0.1 1005730
16:00+1з81498100 0.1 1005753
19:00−1сз91492100 0.5 1006859
22:00−7ссз6118998 0.5 1009652
28 февраля, вс
вс2801:00−9сз5109179 0.0 1010545
04:00−9сз599378 0.0 1012531
07:00−10ссз499298 0.0 1013494
10:00−11ссз578979 0.0 1015500
13:00−9ссз468791 0.0 1016525
16:00−8ссз468796 0.0 1016535
19:00−9ссз2494100 0.0 1017133
22:00−10с129699 0.1 101943
1 марта, пн
пн101:00−11св129585 0.0 102021
04:00−12с129443 0.1 102220
07:00−12с229533 0.0 102341
10:00−11с229016 0.0 1024192
13:00−9ссз238460 0.0 1025403
16:00−7сз238480 0.0 1025491
19:00−8з239299 0.0 102592
22:00−9юз339367 0.0 102547
2 марта, вт
вт201:00−8юз479319 0.0 1023141
04:00−6юз5109460 0.1 1020259
07:00−4юз71395100 0.3 1017415
10:00−2зюз71396100 1.2 1014604
13:000зюз611100100 0.8 1012631
16:000з71298100 3.3 1009627
19:000сз51098100 1.3 1008446
22:00−1сз51295100 1.6 1009484
3 марта, ср
ср301:00−2сз5129493 0.1 1009452
04:00−4сз5119594 0.2 1010359
07:00−3сз61196100 0.3 1010520
10:00−2сз61091100 0.7 1012778
13:00−1ссз7108797 0.1 1014978
16:00−1ссз698798 0.3 1015976
19:00−2сз51093100 0.3 1016556
22:00−3сз51193100 0.3 1018492